Time,TemperatureF,DewpointF,PressureIn,WindDirection,WindDirectionDegrees,WindSpeedMPH,WindSpeedGustMPH,Humidity,HourlyPrecipIn,Conditions,Clouds,dailyrainin,SoftwareType,DateUTC
2013-10-23 00:04:00,55.1,53.9,29.18,SE,128,4.1,6.3,96,-99.99,,,-99.99,WSDL version 443,2013-10-22 23:04:00,
2013-10-23 00:10:00,54.9,53.6,29.18,ESE,113,4.0,7.2,96,-99.99,,,-99.99,WSDL version 443,2013-10-22 23:10:00,
2013-10-23 00:16:00,55.0,53.8,29.18,SSW,203,5.8,6.7,96,-99.99,,,-99.99,WSDL version 443,2013-10-22 23:16:00,
2013-10-23 00:22:00,55.0,53.8,29.18,SE,135,6.9,11.4,96,-99.99,,,-99.99,WSDL version 443,2013-10-22 23:22:00,
2013-10-23 00:28:00,54.9,53.6,29.18,SE,135,4.5,11.4,96,-99.99,,,-99.99,WSDL version 443,2013-10-22 23:28:00,
2013-10-23 00:34:00,54.8,53.6,29.18,SE,135,7.1,12.5,96,-99.99,,,-99.99,WSDL version 443,2013-10-22 23:34:00,
2013-10-23 00:40:00,54.5,53.3,29.18,SSE,158,6.5,12.5,96,-99.99,,,-99.99,WSDL version 443,2013-10-22 23:40:00,
2013-10-23 00:46:00,54.3,53.1,29.18,SSE,158,4.5,6.7,96,-99.99,,,-99.99,WSDL version 443,2013-10-22 23:46:00,
2013-10-23 00:52:00,54.2,53.0,29.15,SE,143,4.0,6.0,96,-99.99,,,-99.99,WSDL version 443,2013-10-22 23:52:00,
2013-10-23 00:58:00,54.0,52.8,29.15,SE,143,5.9,6.9,96,-99.99,,,-99.99,WSDL version 443,2013-10-22 23:58:00,
2013-10-23 01:04:00,53.8,52.5,29.15,SE,143,4.5,6.9,96,-99.99,,,-99.99,WSDL version 443,2013-10-23 00:04:00,
2013-10-23 01:10:00,53.6,52.4,29.15,ESE,113,5.4,7.8,96,-99.99,,,-99.99,WSDL version 443,2013-10-23 00:10:00,
2013-10-23 01:16:00,53.8,52.5,29.15,SSE,152,4.0,6.5,96,-99.99,,,-99.99,WSDL version 443,2013-10-23 00:16:00,
2013-10-23 01:22:00,53.9,52.6,29.15,ESE,113,6.3,9.4,96,-99.99,,,-99.99,WSDL version 443,2013-10-23 00:22:00,
2013-10-23 01:28:00,54.1,52.9,29.15,SSE,158,4.5,10.3,96,-99.99,,,-99.99,WSDL version 443,2013-10-23 00:28:00,
2013-10-23 01:34:00,54.1,52.8,29.15,SE,146,8.2,10.3,96,-99.99,,,-99.99,WSDL version 443,2013-10-23 00:34:00,
2013-10-23 01:40:00,53.8,52.5,29.15,SSE,162,7.5,10.1,96,-99.99,,,-99.99,WSDL version 443,2013-10-23 00:40:00,
2013-10-23 01:46:00,53.8,52.6,29.15,SE,135,7.6,12.1,96,-99.99,,,-99.99,WSDL version 443,2013-10-23 00:46:00,
2013-10-23 01:52:00,53.8,52.9,29.15,SE,129,5.6,12.1,97,-99.99,,,-99.99,WSDL version 443,2013-10-23 00:52:00,
2013-10-23 01:58:00,53.8,52.9,29.15,SSE,165,6.1,9.4,97,-99.99,,,-99.99,WSDL version 443,2013-10-23 00:58:00,
2013-10-23 02:04:00,54.0,53.0,29.15,SSE,158,5.5,7.6,97,-99.99,,,-99.99,WSDL version 443,2013-10-23 01:04:00,
2013-10-23 02:10:00,54.1,53.2,29.15,SE,141,6.2,8.7,97,-99.99,,,-99.99,WSDL version 443,2013-10-23 01:10:00,
2013-10-23 02:16:00,54.3,53.4,29.12,SE,135,9.5,12.8,97,-99.99,,,-99.99,WSDL version 443,2013-10-23 01:16:00,
2013-10-23 02:22:00,54.5,53.6,29.12,SE,135,5.2,12.8,97,-99.99,,,-99.99,WSDL version 443,2013-10-23 01:22:00,
2013-10-23 02:28:00,54.5,53.6,29.12,ESE,105,5.1,8.5,97,-99.99,,,-99.99,WSDL version 443,2013-10-23 01:28:00,
2013-10-23 02:34:00,54.5,53.6,29.12,SE,129,5.7,7.6,97,-99.99,,,-99.99,WSDL version 443,2013-10-23 01:34:00,
2013-10-23 02:40:00,54.6,53.6,29.12,SSE,158,6.5,7.6,97,-99.99,,,-99.99,WSDL version 443,2013-10-23 01:40:00,
2013-10-23 02:46:00,54.7,53.8,29.12,SE,135,7.8,10.1,97,-99.99,,,-99.99,WSDL version 443,2013-10-23 01:46:00,
2013-10-23 02:52:00,54.7,53.8,29.12,SE,143,4.7,10.1,97,-99.99,,,-99.99,WSDL version 443,2013-10-23 01:52:00,
2013-10-23 02:58:00,54.7,53.8,29.12,ESE,120,8.1,9.8,97,-99.99,,,-99.99,WSDL version 443,2013-10-23 01:58:00,
2013-10-23 03:04:00,54.7,53.8,29.12,SE,135,6.2,10.1,97,-99.99,,,-99.99,WSDL version 443,2013-10-23 02:04:00,
2013-10-23 03:10:00,54.7,53.8,29.12,SE,135,3.8,10.1,97,-99.99,,,-99.99,WSDL version 443,2013-10-23 02:10:00,
2013-10-23 03:16:00,54.7,53.8,29.09,SE,135,5.9,7.6,97,-99.99,,,-99.99,WSDL version 443,2013-10-23 02:16:00,
2013-10-23 03:22:00,54.7,53.8,29.09,SE,135,6.2,8.5,97,-99.99,,,-99.99,WSDL version 443,2013-10-23 02:22:00,
2013-10-23 03:28:00,54.7,54.1,29.09,SSW,210,4.3,8.5,98,-99.99,,,-99.99,WSDL version 443,2013-10-23 02:28:00,
2013-10-23 03:34:00,54.5,53.9,29.09,SE,135,4.1,5.8,98,-99.99,,,-99.99,WSDL version 443,2013-10-23 02:34:00,
2013-10-23 03:40:00,54.5,53.9,29.09,South,180,4.6,7.8,98,-99.99,,,-99.99,WSDL version 443,2013-10-23 02:40:00,
2013-10-23 03:46:00,54.6,54.0,29.09,SSE,150,5.6,7.8,98,-99.99,,,-99.99,WSDL version 443,2013-10-23 02:46:00,
2013-10-23 03:52:00,54.7,54.1,29.09,SSE,158,5.0,8.1,98,-99.99,,,-99.99,WSDL version 443,2013-10-23 02:52:00,
2013-10-23 03:58:00,54.9,54.3,29.09,SSE,150,4.7,8.1,98,-99.99,,,-99.99,WSDL version 443,2013-10-23 02:58:00,
2013-10-23 04:04:00,55.0,54.4,29.09,SE,146,4.4,13.0,98,-99.99,,,-99.99,WSDL version 443,2013-10-23 03:04:00,
2013-10-23 04:10:00,55.0,54.4,29.09,South,169,6.7,9.4,98,-99.99,,,-99.99,WSDL version 443,2013-10-23 03:10:00,
2013-10-23 04:16:00,55.0,54.4,29.09,SSW,203,9.5,10.5,98,-99.99,,,-99.99,WSDL version 443,2013-10-23 03:16:00,
2013-10-23 04:22:00,54.9,54.2,29.09,SSE,165,4.5,10.5,98,-99.99,,,-99.99,WSDL version 443,2013-10-23 03:22:00,
2013-10-23 04:28:00,54.8,54.2,29.09,SE,135,8.7,10.1,98,-99.99,,,-99.99,WSDL version 443,2013-10-23 03:28:00,
2013-10-23 04:34:00,54.7,54.1,29.09,South,188,8.4,10.1,98,-99.99,,,-99.99,WSDL version 443,2013-10-23 03:34:00,
2013-10-23 04:40:00,54.5,53.9,29.09,South,186,4.5,8.7,98,-99.99,,,-99.99,WSDL version 443,2013-10-23 03:40:00,
2013-10-23 04:46:00,54.5,53.9,29.09,SE,141,8.6,13.2,98,-99.99,,,-99.99,WSDL version 443,2013-10-23 03:46:00,
2013-10-23 04:52:00,54.5,53.9,29.09,South,173,4.8,13.2,98,-99.99,,,-99.99,WSDL version 443,2013-10-23 03:52:00,
2013-10-23 04:58:00,54.5,53.9,29.09,South,188,5.6,8.7,98,-99.99,,,-99.99,WSDL version 443,2013-10-23 03:58:00,
2013-10-23 05:02:00,54.5,53.9,29.09,South,180,6.8,9.6,98,-99.99,,,-99.99,WSDL version 443,2013-10-23 04:02:00,
2013-10-23 05:04:00,54.4,53.8,29.09,South,180,5.4,9.6,98,-99.99,,,-99.99,WSDL version 443,2013-10-23 04:04:00,
2013-10-23 05:06:00,54.4,53.8,29.09,South,173,8.7,10.3,98,-99.99,,,-99.99,WSDL version 443,2013-10-23 04:06:00,
2013-10-23 05:10:00,54.3,53.7,29.09,SSW,203,6.8,11.9,98,-99.99,,,-99.99,WSDL version 443,2013-10-23 04:10:00,
2013-10-23 05:16:00,54.3,53.7,29.09,SE,135,6.6,11.9,98,-99.99,,,-99.99,WSDL version 443,2013-10-23 04:16:00,
2013-10-23 05:22:00,54.2,53.6,29.09,South,188,6.3,10.5,98,-99.99,,,-99.99,WSDL version 443,2013-10-23 04:22:00,
2013-10-23 05:28:00,54.1,53.5,29.09,SE,124,6.3,10.5,98,-99.99,,,-99.99,WSDL version 443,2013-10-23 04:28:00,
2013-10-23 05:34:00,54.0,53.3,29.09,South,186,4.0,9.8,98,-99.99,,,-99.99,WSDL version 443,2013-10-23 04:34:00,
2013-10-23 05:40:00,54.1,53.5,29.09,SSW,203,4.7,6.3,98,-99.99,,,-99.99,WSDL version 443,2013-10-23 04:40:00,
2013-10-23 05:46:00,54.1,53.5,29.09,SE,143,5.6,7.4,98,-99.99,,,-99.99,WSDL version 443,2013-10-23 04:46:00,
2013-10-23 05:52:00,54.1,53.5,29.09,South,173,4.2,8.5,98,-99.99,,,-99.99,WSDL version 443,2013-10-23 04:52:00,
2013-10-23 05:58:00,54.1,53.5,29.09,SE,135,3.5,8.5,98,-99.99,,,-99.99,WSDL version 443,2013-10-23 04:58:00,
2013-10-23 06:04:00,54.0,53.3,29.09,SE,146,5.9,7.4,98,-99.99,,,-99.99,WSDL version 443,2013-10-23 05:04:00,
2013-10-23 06:06:00,54.0,53.3,29.09,South,173,5.3,7.4,98,-99.99,,,-99.99,WSDL version 443,2013-10-23 05:06:00,
2013-10-23 06:12:00,54.0,53.3,29.12,SE,135,5.7,7.6,98,-99.99,,,-99.99,WSDL version 443,2013-10-23 05:12:00,
2013-10-23 06:18:00,54.0,53.3,29.12,ESE,120,7.2,9.6,98,-99.99,,,-99.99,WSDL version 443,2013-10-23 05:18:00,
2013-10-23 06:24:00,54.0,53.3,29.12,SSE,158,5.8,9.6,98,-99.99,,,-99.99,WSDL version 443,2013-10-23 05:24:00,
2013-10-23 06:30:00,54.0,53.3,29.12,ESE,113,5.0,7.8,98,-99.99,,,-99.99,WSDL version 443,2013-10-23 05:30:00,
2013-10-23 06:36:00,54.0,53.3,29.12,SW,233,4.4,7.8,98,-99.99,,,-99.99,WSDL version 443,2013-10-23 05:36:00,
2013-10-23 06:42:00,54.0,53.3,29.12,SE,146,4.4,6.3,98,-99.99,,,-99.99,WSDL version 443,2013-10-23 05:42:00,
2013-10-23 06:48:00,54.0,53.3,29.12,SSE,165,4.5,7.2,98,-99.99,,,-99.99,WSDL version 443,2013-10-23 05:48:00,
2013-10-23 06:54:00,54.0,53.3,29.12,SSE,158,5.3,8.1,98,-99.99,,,-99.99,WSDL version 443,2013-10-23 05:54:00,
2013-10-23 07:00:00,53.8,53.2,29.12,SE,135,5.4,9.8,98,-99.99,,,-99.99,WSDL version 443,2013-10-23 06:00:00,
2013-10-23 07:06:00,53.8,53.2,29.12,SE,143,5.0,9.8,98,-99.99,,,-99.99,WSDL version 443,2013-10-23 06:06:00,
2013-10-23 07:12:00,53.7,53.0,29.12,WNW,285,4.9,6.0,98,-99.99,,,-99.99,WSDL version 443,2013-10-23 06:12:00,
2013-10-23 07:18:00,53.6,53.0,29.12,South,180,5.9,7.2,98,-99.99,,,-99.99,WSDL version 443,2013-10-23 06:18:00,
2013-10-23 07:24:00,53.4,52.8,29.12,SSE,150,7.2,8.5,98,-99.99,,,-99.99,WSDL version 443,2013-10-23 06:24:00,
2013-10-23 07:30:00,53.4,52.8,29.12,SSE,165,1.6,7.8,98,-99.99,,,-99.99,WSDL version 443,2013-10-23 06:30:00,
2013-10-23 07:36:00,53.4,53.1,29.12,SSE,165,3.2,7.4,99,-99.99,,,-99.99,WSDL version 443,2013-10-23 06:36:00,
2013-10-23 07:42:00,53.4,53.1,29.12,SSE,150,2.2,7.4,99,-99.99,,,-99.99,WSDL version 443,2013-10-23 06:42:00,
2013-10-23 07:48:00,53.4,53.1,29.12,West,278,3.7,5.4,99,-99.99,,,-99.99,WSDL version 443,2013-10-23 06:48:00,
2013-10-23 07:54:00,53.4,53.1,29.15,South,188,4.9,8.5,99,-99.99,,,-99.99,WSDL version 443,2013-10-23 06:54:00,
2013-10-23 08:00:00,53.6,53.0,29.15,SE,129,5.4,8.5,98,-99.99,,,-99.99,WSDL version 443,2013-10-23 07:00:00,
2013-10-23 08:06:00,53.6,53.0,29.15,SE,141,5.4,7.6,98,-99.99,,,-99.99,WSDL version 443,2013-10-23 07:06:00,
2013-10-23 08:12:00,53.8,53.2,29.15,SE,143,5.4,7.2,98,-99.99,,,-99.99,WSDL version 443,2013-10-23 07:12:00,
2013-10-23 08:18:00,53.8,53.2,29.15,SSE,158,3.4,7.2,98,-99.99,,,-99.99,WSDL version 443,2013-10-23 07:18:00,
2013-10-23 08:24:00,53.9,53.3,29.15,South,188,5.2,7.2,98,-99.99,,,-99.99,WSDL version 443,2013-10-23 07:24:00,
2013-10-23 08:30:00,54.0,53.3,29.15,SSE,158,5.1,6.5,98,-99.99,,,-99.99,WSDL version 443,2013-10-23 07:30:00,
2013-10-23 08:36:00,54.0,53.4,29.15,South,180,5.9,10.1,98,-99.99,,,-99.99,WSDL version 443,2013-10-23 07:36:00,
2013-10-23 08:42:00,54.1,53.5,29.15,South,173,4.8,8.1,98,-99.99,,,-99.99,WSDL version 443,2013-10-23 07:42:00,
2013-10-23 08:48:00,54.2,53.6,29.15,SSE,165,4.8,7.2,98,-99.99,,,-99.99,WSDL version 443,2013-10-23 07:48:00,
2013-10-23 08:54:00,54.3,53.7,29.18,South,173,3.5,8.1,98,-99.99,,,-99.99,WSDL version 443,2013-10-23 07:54:00,
2013-10-23 09:00:00,54.5,53.9,29.18,SE,143,2.5,7.6,98,-99.99,,,-99.99,WSDL version 443,2013-10-23 08:00:00,
2013-10-23 09:06:00,54.5,53.9,29.18,SSW,194,5.7,7.4,98,-99.99,,,-99.99,WSDL version 443,2013-10-23 08:06:00,
2013-10-23 09:12:00,54.6,54.0,29.18,SSE,158,3.4,8.5,98,-99.99,,,-99.99,WSDL version 443,2013-10-23 08:12:00,
2013-10-23 09:18:00,54.7,54.1,29.18,SSW,195,4.3,7.4,98,-99.99,,,-99.99,WSDL version 443,2013-10-23 08:18:00,
2013-10-23 09:24:00,54.7,54.1,29.18,South,173,3.5,5.8,98,-99.99,,,-99.99,WSDL version 443,2013-10-23 08:24:00,
2013-10-23 09:30:00,54.9,54.3,29.18,South,173,3.0,5.4,98,-99.99,,,-99.99,WSDL version 443,2013-10-23 08:30:00,
2013-10-23 09:36:00,55.1,54.5,29.21,SE,135,5.8,7.4,98,-99.99,,,-99.99,WSDL version 443,2013-10-23 08:36:00,
2013-10-23 09:42:00,55.2,54.6,29.21,SW,218,2.9,7.4,98,-99.99,,,-99.99,WSDL version 443,2013-10-23 08:42:00,
2013-10-23 09:48:00,55.2,54.7,29.21,South,186,2.7,5.4,98,-99.99,,,-99.99,WSDL version 443,2013-10-23 08:48:00,
2013-10-23 09:54:00,55.3,54.7,29.21,South,180,3.2,6.5,98,-99.99,,,-99.99,WSDL version 443,2013-10-23 08:54:00,
2013-10-23 10:00:00,55.8,55.1,29.21,SSW,208,5.0,7.2,98,-99.99,,,-99.99,WSDL version 443,2013-10-23 09:00:00,
2013-10-23 10:06:00,56.2,55.6,29.21,SW,214,4.2,8.5,98,-99.99,,,-99.99,WSDL version 443,2013-10-23 09:06:00,
2013-10-23 10:12:00,56.5,55.9,29.21,North,349,2.4,8.5,98,-99.99,,,-99.99,WSDL version 443,2013-10-23 09:12:00,
2013-10-23 10:18:00,56.7,56.0,29.21,SSW,203,2.8,5.4,98,-99.99,,,-99.99,WSDL version 443,2013-10-23 09:18:00,
2013-10-23 10:24:00,56.7,55.7,29.23,WSW,240,6.6,8.1,97,-99.99,,,-99.99,WSDL version 443,2013-10-23 09:24:00,
2013-10-23 10:30:00,56.5,55.5,29.23,NNE,15,4.1,8.1,97,-99.99,,,-99.99,WSDL version 443,2013-10-23 09:30:00,
2013-10-23 10:36:00,56.6,55.6,29.23,WNW,284,3.2,4.7,97,-99.99,,,-99.99,WSDL version 443,2013-10-23 09:36:00,
2013-10-23 10:42:00,56.7,55.7,29.23,WNW,285,5.6,8.7,97,-99.99,,,-99.99,WSDL version 443,2013-10-23 09:42:00,
2013-10-23 10:48:00,56.7,55.6,29.23,SW,225,7.5,11.9,96,-99.99,,,-99.99,WSDL version 443,2013-10-23 09:48:00,
2013-10-23 10:54:00,56.9,55.6,29.26,NNW,345,8.1,11.9,96,-99.99,,,-99.99,WSDL version 443,2013-10-23 09:54:00,
2013-10-23 11:00:00,57.3,56.1,29.26,SW,225,4.5,10.7,96,-99.99,,,-99.99,WSDL version 443,2013-10-23 10:00:00,
2013-10-23 11:06:00,57.2,55.6,29.26,WSW,255,4.0,10.3,94,-99.99,,,-99.99,WSDL version 443,2013-10-23 10:06:00,
2013-10-23 11:12:00,57.1,55.6,29.26,West,270,5.6,10.3,94,-99.99,,,-99.99,WSDL version 443,2013-10-23 10:12:00,
2013-10-23 11:18:00,57.0,55.4,29.26,West,276,6.3,9.2,94,-99.99,,,-99.99,WSDL version 443,2013-10-23 10:18:00,
2013-10-23 11:24:00,56.7,55.1,29.29,South,173,3.3,8.5,94,-99.99,,,-99.99,WSDL version 443,2013-10-23 10:24:00,
2013-10-23 11:30:00,56.8,55.2,29.29,West,278,6.1,8.5,94,-99.99,,,-99.99,WSDL version 443,2013-10-23 10:30:00,
2013-10-23 11:36:00,56.8,55.3,29.29,West,278,11.0,16.3,94,-99.99,,,-99.99,WSDL version 443,2013-10-23 10:36:00,
2013-10-23 11:42:00,56.2,54.7,29.29,NW,308,7.8,16.3,94,-99.99,,,-99.99,WSDL version 443,2013-10-23 10:42:00,
2013-10-23 11:48:00,56.3,54.7,29.29,NE,38,3.1,10.1,94,-99.99,,,-99.99,WSDL version 443,2013-10-23 10:48:00,
2013-10-23 11:54:00,56.2,54.7,29.29,WNW,285,4.4,8.5,94,-99.99,,,-99.99,WSDL version 443,2013-10-23 10:54:00,
2013-10-23 12:00:00,56.3,54.7,29.29,West,276,9.0,10.3,94,-99.99,,,-99.99,WSDL version 443,2013-10-23 11:00:00,
2013-10-23 12:06:00,56.6,54.7,29.32,West,263,1.5,10.3,93,-99.99,,,-99.99,WSDL version 443,2013-10-23 11:06:00,
2013-10-23 12:12:00,57.1,55.2,29.32,WSW,248,6.0,12.5,93,-99.99,,,-99.99,WSDL version 443,2013-10-23 11:12:00,
2013-10-23 12:18:00,57.0,54.8,29.32,WSW,248,4.8,12.5,93,-99.99,,,-99.99,WSDL version 443,2013-10-23 11:18:00,
2013-10-23 12:24:00,56.5,54.1,29.32,West,263,6.4,8.7,92,-99.99,,,-99.99,WSDL version 443,2013-10-23 11:24:00,
2013-10-23 12:30:00,56.4,53.9,29.32,WNW,293,9.8,10.3,91,-99.99,,,-99.99,WSDL version 443,2013-10-23 11:30:00,
2013-10-23 12:36:00,56.4,53.6,29.35,WSW,248,5.1,10.3,90,-99.99,,,-99.99,WSDL version 443,2013-10-23 11:36:00,
2013-10-23 12:42:00,56.2,53.3,29.35,South,186,5.7,8.5,90,-99.99,,,-99.99,WSDL version 443,2013-10-23 11:42:00,
2013-10-23 12:48:00,56.4,53.2,29.35,SW,225,3.7,8.5,89,-99.99,,,-99.99,WSDL version 443,2013-10-23 11:48:00,
2013-10-23 12:54:00,56.5,53.2,29.35,South,173,4.9,11.9,89,-99.99,,,-99.99,WSDL version 443,2013-10-23 11:54:00,
2013-10-23 13:00:00,56.5,52.9,29.35,WSW,248,5.5,10.3,88,-99.99,,,-99.99,WSDL version 443,2013-10-23 12:00:00,
2013-10-23 13:06:00,56.2,52.3,29.35,South,180,3.5,12.8,87,-99.99,,,-99.99,WSDL version 443,2013-10-23 12:06:00,
2013-10-23 13:12:00,55.6,51.7,29.35,SW,233,5.4,12.8,87,-99.99,,,-99.99,WSDL version 443,2013-10-23 12:12:00,
2013-10-23 13:18:00,54.7,50.8,29.35,WSW,255,4.8,15.9,87,-99.99,,,-99.99,WSDL version 443,2013-10-23 12:18:00,
2013-10-23 13:24:00,54.1,50.0,29.35,West,281,7.6,15.9,86,-99.99,,,-99.99,WSDL version 443,2013-10-23 12:24:00,
2013-10-23 13:30:00,53.9,49.6,29.35,SW,214,6.0,13.6,86,-99.99,,,-99.99,WSDL version 443,2013-10-23 12:30:00,
2013-10-23 13:36:00,54.2,49.7,29.38,SSW,210,4.5,13.6,85,-99.99,,,-99.99,WSDL version 443,2013-10-23 12:36:00,
2013-10-23 13:42:00,54.4,49.9,29.38,WSW,248,6.4,7.6,84,-99.99,,,-99.99,WSDL version 443,2013-10-23 12:42:00,
2013-10-23 13:48:00,54.7,49.7,29.38,NE,38,6.6,7.6,83,-99.99,,,-99.99,WSDL version 443,2013-10-23 12:48:00,
2013-10-23 13:54:00,54.5,49.6,29.38,NNE,15,4.0,7.6,83,-99.99,,,-99.99,WSDL version 443,2013-10-23 12:54:00,
2013-10-23 14:00:00,54.7,49.4,29.38,SW,218,5.4,8.5,82,-99.99,,,-99.99,WSDL version 443,2013-10-23 13:00:00,
2013-10-23 14:06:00,54.9,49.2,29.38,SW,214,7.3,14.5,81,-99.99,,,-99.99,WSDL version 443,2013-10-23 13:06:00,
2013-10-23 14:12:00,55.0,49.0,29.38,SW,225,5.7,13.0,80,-99.99,,,-99.99,WSDL version 443,2013-10-23 13:12:00,
2013-10-23 14:18:00,54.9,48.5,29.38,NW,315,11.5,13.0,79,-99.99,,,-99.99,WSDL version 443,2013-10-23 13:18:00,
2013-10-23 14:24:00,54.9,48.5,29.38,West,281,10.2,16.8,79,-99.99,,,-99.99,WSDL version 443,2013-10-23 13:24:00,
2013-10-23 14:30:00,54.9,48.0,29.38,SSW,203,5.8,16.8,78,-99.99,,,-99.99,WSDL version 443,2013-10-23 13:30:00,
2013-10-23 14:36:00,54.5,47.4,29.41,WSW,248,5.5,10.1,77,-99.99,,,-99.99,WSDL version 443,2013-10-23 13:36:00,
2013-10-23 14:42:00,53.7,46.6,29.41,NNW,338,3.3,10.1,77,-99.99,,,-99.99,WSDL version 443,2013-10-23 13:42:00,
2013-10-23 14:48:00,53.5,46.7,29.41,WSW,240,4.3,6.0,78,-99.99,,,-99.99,WSDL version 443,2013-10-23 13:48:00,
2013-10-23 14:54:00,53.4,46.8,29.41,WNW,293,8.2,10.1,78,-99.99,,,-99.99,WSDL version 443,2013-10-23 13:54:00,
2013-10-23 15:00:00,53.1,46.7,29.41,WSW,253,6.5,12.5,79,-99.99,,,-99.99,WSDL version 443,2013-10-23 14:00:00,
2013-10-23 15:06:00,53.1,46.4,29.41,WNW,285,6.9,12.5,78,-99.99,,,-99.99,WSDL version 443,2013-10-23 14:06:00,
2013-10-23 15:12:00,52.8,45.6,29.41,South,188,6.3,13.2,76,-99.99,,,-99.99,WSDL version 443,2013-10-23 14:12:00,
2013-10-23 15:18:00,52.5,45.2,29.41,WSW,248,5.2,13.2,76,-99.99,,,-99.99,WSDL version 443,2013-10-23 14:18:00,
2013-10-23 15:24:00,52.5,45.1,29.41,South,173,3.7,19.7,76,-99.99,,,-99.99,WSDL version 443,2013-10-23 14:24:00,
2013-10-23 15:30:00,52.3,44.6,29.41,SSW,195,6.0,11.4,75,-99.99,,,-99.99,WSDL version 443,2013-10-23 14:30:00,
2013-10-23 15:36:00,51.9,44.4,29.44,East,98,4.3,11.4,76,-99.99,,,-99.99,WSDL version 443,2013-10-23 14:36:00,
2013-10-23 15:42:00,51.6,44.3,29.44,WSW,242,5.1,10.1,76,-99.99,,,-99.99,WSDL version 443,2013-10-23 14:42:00,
2013-10-23 15:48:00,51.5,44.4,29.44,SW,236,4.5,10.1,77,-99.99,,,-99.99,WSDL version 443,2013-10-23 14:48:00,
2013-10-23 15:54:00,51.4,44.3,29.44,SW,233,7.8,8.5,76,-99.99,,,-99.99,WSDL version 443,2013-10-23 14:54:00,
2013-10-23 16:00:00,51.4,44.1,29.44,WSW,240,10.2,14.5,76,-99.99,,,-99.99,WSDL version 443,2013-10-23 15:00:00,
2013-10-23 16:06:00,51.4,44.2,29.47,SE,128,2.4,14.5,76,-99.99,,,-99.99,WSDL version 443,2013-10-23 15:06:00,
2013-10-23 16:12:00,51.3,44.0,29.47,SW,225,7.4,11.0,76,-99.99,,,-99.99,WSDL version 443,2013-10-23 15:12:00,
2013-10-23 16:18:00,51.0,43.8,29.47,WNW,287,4.9,11.0,76,-99.99,,,-99.99,WSDL version 443,2013-10-23 15:18:00,
2013-10-23 16:24:00,50.6,43.3,29.47,SW,218,5.1,9.2,76,-99.99,,,-99.99,WSDL version 443,2013-10-23 15:24:00,
2013-10-23 16:30:00,50.3,43.3,29.47,South,180,4.0,8.1,77,-99.99,,,-99.99,WSDL version 443,2013-10-23 15:30:00,
2013-10-23 16:36:00,50.3,43.6,29.47,SW,225,4.5,9.8,78,-99.99,,,-99.99,WSDL version 443,2013-10-23 15:36:00,
2013-10-23 16:42:00,50.2,43.6,29.47,SW,218,9.3,13.0,78,-99.99,,,-99.99,WSDL version 443,2013-10-23 15:42:00,
2013-10-23 16:48:00,50.2,43.3,29.47,WNW,287,5.4,13.0,77,-99.99,,,-99.99,WSDL version 443,2013-10-23 15:48:00,
2013-10-23 16:54:00,50.4,43.4,29.50,WSW,255,7.0,10.1,77,-99.99,,,-99.99,WSDL version 443,2013-10-23 15:54:00,
2013-10-23 17:00:00,50.4,43.4,29.50,NW,315,3.6,10.1,77,-99.99,,,-99.99,WSDL version 443,2013-10-23 16:00:00,
2013-10-23 17:06:00,50.3,43.0,29.50,SW,218,7.1,9.6,76,-99.99,,,-99.99,WSDL version 443,2013-10-23 16:06:00,
2013-10-23 17:12:00,50.4,43.2,29.50,WSW,248,4.1,9.6,76,-99.99,,,-99.99,WSDL version 443,2013-10-23 16:12:00,
2013-10-23 17:18:00,50.2,43.3,29.50,SW,236,3.1,10.7,77,-99.99,,,-99.99,WSDL version 443,2013-10-23 16:18:00,
2013-10-23 17:24:00,49.6,42.7,29.50,WSW,240,3.1,10.7,77,-99.99,,,-99.99,WSDL version 443,2013-10-23 16:24:00,
2013-10-23 17:30:00,49.3,42.5,29.50,SE,146,2.6,5.8,77,-99.99,,,-99.99,WSDL version 443,2013-10-23 16:30:00,
2013-10-23 17:36:00,48.7,42.3,29.53,West,281,3.2,4.7,78,-99.99,,,-99.99,WSDL version 443,2013-10-23 16:36:00,
2013-10-23 17:42:00,48.4,42.2,29.53,SSW,210,1.3,6.5,79,-99.99,,,-99.99,WSDL version 443,2013-10-23 16:42:00,
2013-10-23 17:48:00,48.2,42.0,29.53,SSW,203,2.7,6.5,79,-99.99,,,-99.99,WSDL version 443,2013-10-23 16:48:00,
2013-10-23 17:54:00,47.8,42.0,29.53,SSW,203,2.4,3.4,80,-99.99,,,-99.99,WSDL version 443,2013-10-23 16:54:00,
2013-10-23 18:00:00,47.6,42.0,29.53,South,188,4.1,5.6,81,-99.99,,,-99.99,WSDL version 443,2013-10-23 17:00:00,
2013-10-23 18:06:00,47.5,42.0,29.53,SSW,203,2.3,6.5,81,-99.99,,,-99.99,WSDL version 443,2013-10-23 17:06:00,
2013-10-23 18:12:00,47.4,41.9,29.53,SW,218,6.0,7.8,81,-99.99,,,-99.99,WSDL version 443,2013-10-23 17:12:00,
2013-10-23 18:18:00,47.3,42.2,29.53,WNW,288,4.7,7.8,82,-99.99,,,-99.99,WSDL version 443,2013-10-23 17:18:00,
2013-10-23 18:24:00,47.2,42.0,29.56,South,173,4.1,6.7,82,-99.99,,,-99.99,WSDL version 443,2013-10-23 17:24:00,
2013-10-23 18:30:00,47.2,42.0,29.56,SSE,165,3.8,6.7,82,-99.99,,,-99.99,WSDL version 443,2013-10-23 17:30:00,
2013-10-23 18:36:00,47.2,42.1,29.56,WSW,248,5.7,6.9,82,-99.99,,,-99.99,WSDL version 443,2013-10-23 17:36:00,
2013-10-23 18:42:00,46.9,41.8,29.56,ESE,113,3.2,6.9,82,-99.99,,,-99.99,WSDL version 443,2013-10-23 17:42:00,
2013-10-23 18:48:00,46.6,41.6,29.56,SW,231,3.5,5.8,83,-99.99,,,-99.99,WSDL version 443,2013-10-23 17:48:00,
2013-10-23 18:54:00,46.4,41.6,29.59,SE,143,2.8,5.8,83,-99.99,,,-99.99,WSDL version 443,2013-10-23 17:54:00,
2013-10-23 19:00:00,46.2,41.7,29.59,South,169,3.9,4.9,84,-99.99,,,-99.99,WSDL version 443,2013-10-23 18:00:00,
2013-10-23 19:06:00,46.0,41.6,29.59,SW,218,2.2,4.9,84,-99.99,,,-99.99,WSDL version 443,2013-10-23 18:06:00,
2013-10-23 19:12:00,46.0,41.8,29.59,SSW,203,2.9,4.7,85,-99.99,,,-99.99,WSDL version 443,2013-10-23 18:12:00,
2013-10-23 19:18:00,45.9,41.8,29.59,SSW,210,3.1,3.8,86,-99.99,,,-99.99,WSDL version 443,2013-10-23 18:18:00,
2013-10-23 19:24:00,46.0,42.0,29.59,SSE,165,3.3,4.3,86,-99.99,,,-99.99,WSDL version 443,2013-10-23 18:24:00,
2013-10-23 19:30:00,46.2,42.1,29.59,SSW,210,4.0,5.6,86,-99.99,,,-99.99,WSDL version 443,2013-10-23 18:30:00,
2013-10-23 19:36:00,46.0,42.0,29.59,SSE,158,2.3,4.7,86,-99.99,,,-99.99,WSDL version 443,2013-10-23 18:36:00,
2013-10-23 19:42:00,46.0,41.9,29.62,SSW,197,1.1,2.9,86,-99.99,,,-99.99,WSDL version 443,2013-10-23 18:42:00,
2013-10-23 19:48:00,45.5,41.4,29.62,SSE,150,2.2,3.6,86,-99.99,,,-99.99,WSDL version 443,2013-10-23 18:48:00,
2013-10-23 19:54:00,45.3,41.5,29.62,South,173,3.9,7.2,86,-99.99,,,-99.99,WSDL version 443,2013-10-23 18:54:00,
2013-10-23 20:00:00,45.2,41.5,29.62,SSE,158,2.0,7.2,87,-99.99,,,-99.99,WSDL version 443,2013-10-23 19:00:00,
2013-10-23 20:06:00,44.8,41.1,29.62,SE,128,2.0,3.1,87,-99.99,,,-99.99,WSDL version 443,2013-10-23 19:06:00,
2013-10-23 20:12:00,44.8,41.1,29.62,SE,135,0.7,3.6,87,-99.99,,,-99.99,WSDL version 443,2013-10-23 19:12:00,
2013-10-23 20:18:00,44.5,41.0,29.62,SE,128,1.7,4.9,87,-99.99,,,-99.99,WSDL version 443,2013-10-23 19:18:00,
2013-10-23 20:24:00,44.3,40.9,29.62,SSE,152,4.3,6.3,88,-99.99,,,-99.99,WSDL version 443,2013-10-23 19:24:00,
2013-10-23 20:30:00,44.2,41.1,29.62,South,173,3.7,6.3,89,-99.99,,,-99.99,WSDL version 443,2013-10-23 19:30:00,
2013-10-23 20:36:00,44.2,41.2,29.62,SE,143,2.6,4.3,89,-99.99,,,-99.99,WSDL version 443,2013-10-23 19:36:00,
2013-10-23 20:42:00,44.3,41.3,29.65,SSE,163,2.3,5.4,89,-99.99,,,-99.99,WSDL version 443,2013-10-23 19:42:00,
2013-10-23 20:48:00,44.2,41.2,29.65,South,173,3.1,3.6,89,-99.99,,,-99.99,WSDL version 443,2013-10-23 19:48:00,
2013-10-23 20:54:00,44.2,41.4,29.65,SSW,195,3.4,4.0,90,-99.99,,,-99.99,WSDL version 443,2013-10-23 19:54:00,
2013-10-23 21:00:00,44.2,41.5,29.65,SW,225,4.7,5.6,90,-99.99,,,-99.99,WSDL version 443,2013-10-23 20:00:00,
2013-10-23 21:06:00,44.2,41.4,29.65,SSE,165,1.6,5.6,90,-99.99,,,-99.99,WSDL version 443,2013-10-23 20:06:00,
2013-10-23 21:12:00,44.1,41.3,29.65,South,169,2.4,4.0,90,-99.99,,,-99.99,WSDL version 443,2013-10-23 20:12:00,
2013-10-23 21:18:00,43.9,41.1,29.65,SW,225,1.7,4.0,90,-99.99,,,-99.99,WSDL version 443,2013-10-23 20:18:00,
2013-10-23 21:24:00,43.7,41.3,29.65,SSW,203,3.4,4.0,91,-99.99,,,-99.99,WSDL version 443,2013-10-23 20:24:00,
2013-10-23 21:30:00,43.5,41.1,29.65,ESE,120,2.2,4.3,91,-99.99,,,-99.99,WSDL version 443,2013-10-23 20:30:00,
2013-10-23 21:36:00,43.6,41.2,29.65,South,173,2.7,4.9,91,-99.99,,,-99.99,WSDL version 443,2013-10-23 20:36:00,
2013-10-23 21:42:00,43.5,41.1,29.68,SSW,195,2.6,4.0,91,-99.99,,,-99.99,WSDL version 443,2013-10-23 20:42:00,
2013-10-23 21:48:00,43.5,41.4,29.68,SSE,150,3.7,5.4,92,-99.99,,,-99.99,WSDL version 443,2013-10-23 20:48:00,
2013-10-23 21:54:00,43.5,41.4,29.68,SSW,195,4.1,5.4,92,-99.99,,,-99.99,WSDL version 443,2013-10-23 20:54:00,
2013-10-23 22:00:00,43.6,41.5,29.68,SSW,195,3.5,4.9,92,-99.99,,,-99.99,WSDL version 443,2013-10-23 21:00:00,
2013-10-23 22:06:00,43.5,41.4,29.68,East,90,2.0,4.3,92,-99.99,,,-99.99,WSDL version 443,2013-10-23 21:06:00,
2013-10-23 22:12:00,43.5,41.4,29.68,South,173,4.5,6.9,92,-99.99,,,-99.99,WSDL version 443,2013-10-23 21:12:00,
2013-10-23 22:18:00,43.5,41.4,29.68,SE,135,2.6,6.9,92,-99.99,,,-99.99,WSDL version 443,2013-10-23 21:18:00,
2013-10-23 22:24:00,43.3,41.2,29.68,SE,146,1.7,4.0,92,-99.99,,,-99.99,WSDL version 443,2013-10-23 21:24:00,
2013-10-23 22:30:00,43.0,41.0,29.68,SSE,150,2.6,3.6,93,-99.99,,,-99.99,WSDL version 443,2013-10-23 21:30:00,
2013-10-23 22:36:00,42.8,41.0,29.68,SSW,195,4.0,4.3,93,-99.99,,,-99.99,WSDL version 443,2013-10-23 21:36:00,
2013-10-23 22:42:00,42.8,41.0,29.71,SSE,163,3.1,4.3,93,-99.99,,,-99.99,WSDL version 443,2013-10-23 21:42:00,
2013-10-23 22:48:00,42.8,41.0,29.71,South,173,3.1,4.0,93,-99.99,,,-99.99,WSDL version 443,2013-10-23 21:48:00,
2013-10-23 22:54:00,42.7,41.1,29.71,SE,143,4.5,4.9,94,-99.99,,,-99.99,WSDL version 443,2013-10-23 21:54:00,
2013-10-23 23:00:00,42.8,41.3,29.71,South,173,4.5,6.0,94,-99.99,,,-99.99,WSDL version 443,2013-10-23 22:00:00,
2013-10-23 23:06:00,42.8,41.3,29.71,SE,143,2.2,6.0,94,-99.99,,,-99.99,WSDL version 443,2013-10-23 22:06:00,
2013-10-23 23:12:00,42.8,41.3,29.71,SSE,158,3.6,4.3,94,-99.99,,,-99.99,WSDL version 443,2013-10-23 22:12:00,
2013-10-23 23:18:00,42.9,41.4,29.71,SE,143,3.1,4.3,94,-99.99,,,-99.99,WSDL version 443,2013-10-23 22:18:00,
2013-10-23 23:24:00,42.7,41.4,29.71,South,180,2.9,3.4,95,-99.99,,,-99.99,WSDL version 443,2013-10-23 22:24:00,
2013-10-23 23:30:00,42.4,41.3,29.71,SE,146,1.8,3.1,96,-99.99,,,-99.99,WSDL version 443,2013-10-23 22:30:00,
2013-10-23 23:36:00,42.4,41.3,29.71,South,173,2.8,4.0,96,-99.99,,,-99.99,WSDL version 443,2013-10-23 22:36:00,
2013-10-23 23:42:00,42.4,41.3,29.74,South,180,2.8,4.0,96,-99.99,,,-99.99,WSDL version 443,2013-10-23 22:42:00,
2013-10-23 23:48:00,42.5,41.4,29.74,ESE,105,1.6,4.0,96,-99.99,,,-99.99,WSDL version 443,2013-10-23 22:48:00,
2013-10-23 23:54:00,42.4,41.6,29.74,South,173,1.7,2.9,97,-99.99,,,-99.99,WSDL version 443,2013-10-23 22:54:00,